Hami, China
Current Conditions -  °F | °C
As of 4:30 PM on Wednesday 26 Nov 2014 (Local Time) from ZWWW Reporting Station
Broken Clouds Broken Clouds  
Wind Chill: 17°   Ceiling: 2600
Heat Index: 23°   Visibility: 4mi
Dew Point: 19°   Wind: 4mph
Humidity: 86%   Direction: 350°N
Pressure: 30.36"   Gusts: NA
Location:  42.8°N, 93.45°E
Report Text: ZWWW 260830Z 35002MPS 310V020 6000 BKN026 M05/M07 Q1028 NOSIG
Loading
Personal Weather Stations






























Interactive Weather Map New forecast layout! Learn more

10-Day Weather Forecast

Advertisements
Track Severe Weather on mobile